Total_Precipitation_Accumulation
2.45 2.73 2.87 3.10 3.42 3.72 3.99 4.27 4.66 4.79 4.56 4.53 4.50 4.41 4.13 3.98 3.63 3.21 2.86 2.79 2.80 3.02 3.50 3.19 3.51 3.43 3.59 3.66 3.66 3.99 4.12 3.78 3.84 3.81 3.33 2.63 2.22 2.17 2.18 2.22 2.37 2.36 2.41
2.27 2.54 2.56 2.80 3.03 3.55 4.05 4.39 4.38 4.27 4.01 4.14 4.46 4.71 4.70 4.20 3.61 3.26 3.13 2.77 2.71 2.83 3.00 3.23 3.16 3.19 3.38 3.39 3.46 3.81 3.81 3.42 3.55 3.81 3.88 3.13 2.78 2.26 1.74 2.09 2.21 2.28 2.60
1.83 2.14 2.17 2.27 2.48 2.99 3.50 3.64 3.51 3.44 3.31 3.39 3.71 3.95 4.20 3.95 3.64 3.34 3.08 2.74 2.66 2.62 2.71 2.91 2.94 2.96 2.84 3.09 3.34 3.33 3.39 3.34 3.31 3.36 3.80 3.51 3.08 2.58 2.01 1.90 2.01 2.30 2.55
1.67 1.83 1.89 1.94 1.99 2.12 2.38 2.57 2.77 2.87 2.88 2.92 3.13 3.33 3.51 3.47 3.35 3.24 2.97 2.68 2.42 2.38 2.46 2.54 2.55 2.59 2.57 2.87 2.65 2.74 3.07 3.34 3.20 3.12 3.06 3.14 3.27 3.14 2.50 2.02 1.92 2.14 2.30
1.41 1.55 1.63 1.64 1.69 1.84 2.05 2.29 2.59 2.74 2.82 2.80 2.89 3.11 3.41 3.42 3.18 2.94 2.88 2.70 2.47 2.25 2.17 2.32 2.39 2.38 2.33 2.43 2.50 2.82 2.84 2.99 3.00 2.98 2.98 3.09 3.13 2.96 2.77 2.41 2.25 2.18 1.95
1.19 1.39 1.50 1.56 1.58 1.66 1.90 2.13 2.37 2.38 2.49 2.56 2.57 2.63 2.81 2.95 2.79 2.61 2.55 2.36 2.20 2.06 2.01 2.10 2.33 2.25 2.20 2.32 2.42 2.53 2.55 2.67 2.78 2.77 2.77 3.00 2.87 2.80 2.90 2.61 2.45 2.35 2.02
1.02 1.20 1.37 1.39 1.52 1.63 1.74 1.89 2.04 2.15 2.16 2.20 2.13 2.10 2.18 2.33 2.32 2.23 2.24 2.15 1.95 1.79 1.77 1.89 2.06 2.03 2.05 2.15 2.31 2.34 2.44 2.58 2.62 2.56 2.56 2.64 2.62 2.68 2.82 2.93 2.66 2.46 2.11
0.75 0.85 1.02 1.14 1.28 1.44 1.52 1.64 1.77 1.90 1.98 2.04 2.05 2.01 1.97 2.05 2.14 2.22 2.08 2.01 1.79 1.63 1.69 1.77 1.78 1.85 1.90 1.92 2.29 2.33 2.42 2.54 2.47 2.32 2.67 2.56 2.35 2.51 2.67 2.92 3.14 2.94 2.51
0.70 0.72 0.82 0.93 0.99 1.09 1.20 1.32 1.47 1.63 1.80 1.81 1.93 1.91 1.78 1.86 2.04 2.14 2.06 1.97 1.92 1.80 1.81 1.77 1.79 1.87 2.00 2.15 2.41 2.47 2.47 2.56 2.51 2.55 2.69 2.54 2.34 2.34 2.40 2.82 3.17 3.37 3.04
0.67 0.68 0.68 0.70 0.69 0.81 1.09 1.23 1.38 1.53 1.59 1.56 1.52 1.47 1.54 1.71 1.85 1.85 1.78 1.91 1.98 1.99 1.97 1.96 1.95 1.91 2.00 2.20 2.40 2.45 2.46 2.56 2.61 2.65 2.76 2.73 2.53 2.51 2.50 2.78 3.09 3.32 3.44
0.66 0.64 0.69 0.71 0.71 0.80 1.02 1.05 1.11 1.32 1.39 1.36 1.26 1.27 1.35 1.46 1.54 1.56 1.56 1.73 1.82 1.88 1.82 1.79 1.81 1.83 1.92 2.04 2.13 2.09 2.14 2.20 2.36 2.31 2.45 2.59 2.71 2.68 2.69 2.85 3.01 3.25 3.50
0.60 0.59 0.68 0.80 0.92 1.08 1.02 0.90 0.91 0.98 1.13 1.18 1.17 1.21 1.24 1.23 1.22 1.25 1.36 1.48 1.54 1.58 1.48 1.53 1.58 1.58 1.60 1.70 1.68 1.67 1.80 1.98 2.17 2.31 2.45 2.37 2.46 2.50 2.52 2.72 2.97 3.21 3.43
0.63 0.66 0.77 0.82 0.84 0.98 1.08 0.93 0.90 0.97 1.09 1.14 1.22 1.31 1.32 1.23 1.14 1.17 1.27 1.28 1.25 1.28 1.28 1.36 1.42 1.41 1.44 1.43 1.43 1.53 1.65 1.79 1.97 2.13 2.16 2.08 2.19 2.22 2.40 2.51 2.67 2.91 3.16
0.62 0.66 0.80 0.95 0.94 0.93 1.02 0.95 0.92 0.98 1.11 1.30 1.51 1.55 1.47 1.37 1.27 1.19 1.19 1.19 1.15 1.23 1.27 1.37 1.43 1.42 1.47 1.51 1.64 1.72 1.78 1.86 1.87 1.83 1.80 1.76 1.84 1.98 2.24 2.34 2.44 2.61 2.84
0.69 0.63 0.74 0.92 1.01 1.02 1.03 0.98 1.02 1.07 1.20 1.44 1.58 1.61 1.59 1.52 1.43 1.32 1.25 1.20 1.22 1.23 1.29 1.41 1.50 1.56 1.53 1.44 1.65 1.78 1.72 1.80 1.78 1.68 1.52 1.42 1.51 1.64 1.80 1.76 2.01 2.24 2.44
0.77 0.71 0.72 0.79 0.95 1.02 1.07 1.12 1.21 1.25 1.30 1.31 1.36 1.48 1.56 1.54 1.47 1.32 1.25 1.29 1.30 1.28 1.27 1.28 1.38 1.37 1.14 1.26 1.45 1.57 1.60 1.70 1.73 1.61 1.46 1.33 1.34 1.40 1.47 1.51 1.59 1.77 1.99
0.73 0.69 0.73 0.76 0.83 0.87 0.96 1.19 1.22 1.19 1.21 1.27 1.35 1.45 1.50 1.48 1.42 1.27 1.25 1.28 1.29 1.32 1.33 1.31 1.34 1.32 1.26 1.34 1.33 1.33 1.43 1.55 1.57 1.62 1.62 1.35 1.12 1.27 1.26 1.35 1.35 1.43 1.57
0.62 0.63 0.70 0.78 0.80 0.76 0.75 0.86 0.99 1.11 1.17 1.22 1.30 1.38 1.42 1.50 1.55 1.46 1.35 1.37 1.39 1.35 1.38 1.38 1.36 1.42 1.40 1.41 1.28 1.30 1.30 1.42 1.49 1.51 1.49 1.46 1.39 1.30 1.28 1.32 1.33 1.22 1.28
0.55 0.67 0.79 0.77 0.76 0.76 0.76 0.86 0.99 1.11 1.24 1.30 1.33 1.34 1.42 1.57 1.62 1.50 1.46 1.49 1.46 1.37 1.35 1.34 1.30 1.31 1.39 1.45 1.33 1.28 1.25 1.39 1.46 1.46 1.42 1.38 1.38 1.40 1.27 1.31 1.30 1.22 1.19
0.64 0.63 0.64 0.63 0.68 0.80 0.89 0.97 1.12 1.29 1.36 1.37 1.43 1.50 1.52 1.63 1.73 1.76 1.72 1.65 1.60 1.52 1.48 1.41 1.37 1.35 1.38 1.39 1.21 1.15 1.13 1.26 1.34 1.43 1.34 1.22 1.16 1.20 1.16 1.23 1.31 1.21 1.18
0.65 0.66 0.71 0.74 0.77 0.81 0.98 1.18 1.27 1.35 1.38 1.39 1.41 1.58 1.66 1.77 1.94 2.11 2.02 1.96 1.89 1.86 1.80 1.72 1.64 1.61 1.63 1.53 1.25 1.13 1.10 1.25 1.37 1.35 1.23 1.16 1.10 1.04 1.02 1.05 1.13 1.19 1.27
0.72 0.78 0.89 0.93 0.85 0.85 0.99 1.17 1.27 1.32 1.45 1.49 1.54 1.60 1.75 1.82 1.98 2.34 2.32 2.33 2.33 2.18 2.10 2.02 1.95 1.92 1.88 1.66 1.40 1.26 1.28 1.34 1.39 1.41 1.35 1.30 1.17 1.04 0.96 0.90 0.94 1.06 1.08
0.73 0.79 0.92 1.00 1.02 1.09 1.21 1.37 1.42 1.48 1.57 1.69 1.81 1.88 1.96 2.10 2.18 2.32 2.37 2.41 2.39 2.27 2.15 2.04 1.89 1.91 1.89 1.78 1.51 1.36 1.36 1.38 1.39 1.41 1.40 1.27 1.15 1.07 1.04 1.02 1.06 1.07 1.07
0.82 0.90 0.98 1.17 1.28 1.32 1.41 1.53 1.64 1.74 1.85 1.98 2.07 2.12 2.16 2.17 2.21 2.34 2.35 2.36 2.36 2.27 2.20 2.14 2.02 2.01 2.05 1.96 1.81 1.65 1.57 1.58 1.54 1.48 1.45 1.31 1.19 1.10 1.08 1.06 1.02 1.02 1.10
0.99 1.06 1.17 1.29 1.32 1.40 1.49 1.60 1.79 1.98 2.06 2.07 2.07 2.06 2.11 2.26 2.32 2.29 2.28 2.34 2.40 2.37 2.34 2.29 2.31 2.26 2.24 2.15 2.04 1.92 1.87 1.93 1.93 1.84 1.76 1.66 1.53 1.38 1.33 1.28 1.26 1.27 1.30
1.10 1.21 1.31 1.40 1.42 1.55 1.71 1.82 1.99 2.18 2.35 2.31 2.22 2.23 2.26 2.34 2.35 2.30 2.24 2.29 2.24 2.18 2.12 2.15 2.18 2.11 2.14 2.16 1.98 1.91 1.89 1.93 1.93 1.81 1.75 1.80 1.79 1.70 1.64 1.58 1.54 1.53 1.48